Location: Biltmore Gardens
(41.6070°N, 83.4666°W)
Time: 13:09:21
(UTC+00:00)

Lacrosse 5 rocket - Pass Details

Date: 14 July 2020
Orbit: 464 x 632 km, 57.0° (Epoch: 04 August)

Event Time Altitude Azimuth Distance (km) Brightness Sun altitude
Rises 02:53:55 0° 321° (NW) 2,750 6.8 -16.0°
Reaches altitude 10° 02:56:42 10° 339° (NNW) 1,816 5.1 -16.4°
Maximum altitude 02:59:45 20° 27° (NNE) 1,269 3.4 -16.7°
Enters shadow 03:02:36 10° 75° (ENE) 1,714 3.6 -17.1°
